Beijing, China

8:13 AM CST on July 21, 2018 (GMT +0800)
Beijing Capital

Weather History for ZBAA - June, 2018

Change the Weather History Date:

Thursday, June 14, 2018

  Actual Average Record
Temperature  
Mean Temperature 75 °F -  
Max Temperature 91 °F 87 °F 100 °F (2000)
Min Temperature 59 °F 68 °F 57 °F (2006)
Cooling Degree Days 10    
Growing Degree Days 25 (Base 50)    
Moisture  
Dew Point 59 °F    
Average Humidity 63    
Maximum Humidity 100    
Minimum Humidity 22    
Precipitation  
Precipitation 0.00 in 0.16 in - ()
Sea Level Pressure  
Sea Level Pressure 29.64 in    
Wind  
Wind Speed 4 mph ()    
Max Wind Speed 13 mph    
Max Gust Speed 16 mph    
Visibility 7.8 miles    
Events      
Averages and records for this station are not official NWS values.
T = Trace of Precipitation, MM = Missing Value Source: Averaged Metar Reports

Daily Weather History Graph

Daily Weather History Graph

Search for Another Location

Airport or City:

Astronomy

Jun. 14, 2018 Rise Set
Actual Time 4:43 AM CST 7:43 PM CST
Civil Twilight 4:11 AM CST 8:16 PM CST
Nautical Twilight 3:29 AM CST 8:58 PM CST
Astronomical Twilight 2:41 AM CST 9:46 PM CST
Moon 5:08 AM CST (6/14) 8:07 PM CST (6/14)
Length of Visible Light 16h 05m
Length of Day
14h 59m
New Moon, 0% of the Moon is Illuminated
Jun 14
New Moon
Jun 20
First Quarter
Jun 28
Full
Jul 6
Last Quarter
Jul 13
New

Hourly Weather History & Observations

Time (CST) Temp. Heat Index Dew Point Humidity Pressure Visibility Wind Dir Wind Speed Gust Speed Precip Events Conditions
12:00 AM 60.8 °F - 59.0 °F 94% 29.62 in - SE 2.2 mph - N/A   Clear
12:30 AM 60.8 °F - 59.0 °F 94% 29.65 in - East 2.2 mph - N/A   Clear
1:00 AM 62.6 °F - 60.8 °F 94% 29.65 in - SE 2.2 mph - N/A   Clear
1:30 AM 60.8 °F - 60.8 °F 100% 29.65 in - SE 4.5 mph - N/A   Clear
2:00 AM 61 °F - 58 °F 88% 29.66 in 7 mi ESE 2.2 mph - -  
2:00 AM 60.8 °F - 59.0 °F 94% 29.65 in - Variable 2.2 mph - N/A   Clear
2:30 AM 60.8 °F - 59.0 °F 94% 29.65 in - ENE 2.2 mph - N/A   Clear
3:00 AM 60.8 °F - 59.0 °F 94% 29.65 in - Variable 2.2 mph - N/A   Clear
3:30 AM 59.0 °F - 59.0 °F 100% 29.65 in - Variable 2.2 mph - N/A   Clear
4:00 AM 59.0 °F - 59.0 °F 100% 29.65 in - NE 2.2 mph - N/A   Clear
4:30 AM 59.0 °F - 59.0 °F 100% 29.65 in - North 4.5 mph - N/A   Clear
5:00 AM 60 °F - 58 °F 90% 29.68 in 4 mi WSW 2.2 mph - -   Mist
5:00 AM 60.8 °F - 59.0 °F 94% 29.68 in - North 4.5 mph - N/A   Clear
5:30 AM 60.8 °F - 60.8 °F 100% 29.68 in - Calm Calm - N/A   Clear
6:00 AM 64.4 °F - 62.6 °F 94% 29.68 in - Calm Calm - N/A   Clear
6:30 AM 66.2 °F - 60.8 °F 83% 29.68 in - Variable 2.2 mph - N/A   Clear
7:00 AM 68.0 °F - 60.8 °F 78% 29.68 in - Variable 2.2 mph - N/A   Clear
7:30 AM 69.8 °F - 60.8 °F 73% 29.68 in - Variable 2.2 mph - N/A   Clear
8:00 AM 71 °F - 58 °F 54% 29.68 in 8 mi WSW 4.5 mph - -   Scattered Clouds
8:00 AM 71.6 °F - 60.8 °F 69% 29.68 in - NNE 4.5 mph - N/A   Clear
8:30 AM 73.4 °F - 59.0 °F 61% 29.68 in - Variable 4.5 mph - N/A   Clear
9:00 AM 77.0 °F - 59.0 °F 54% 29.68 in - Variable 4.5 mph - N/A   Clear
9:30 AM 75.2 °F - 57.2 °F 53% 29.65 in - Variable 4.5 mph - N/A   Clear
10:30 AM 78.8 °F - 57.2 °F 47% 29.65 in - Variable 2.2 mph - N/A   Clear
11:00 AM 78 °F - 58 °F 40% 29.65 in 11 mi SW 4.5 mph - -  
11:00 AM 82.4 °F 82.0 °F 57.2 °F 42% 29.65 in - Variable 4.5 mph - N/A   Clear
11:30 AM 80.6 °F 81.1 °F 59.0 °F 48% 29.62 in 6.2 mi Variable 6.7 mph - N/A   Partly Cloudy
12:00 PM 84.2 °F 83.5 °F 57.2 °F 40% 29.62 in - Variable 4.5 mph - N/A   Clear
12:30 PM 86.0 °F 84.9 °F 57.2 °F 37% 29.62 in - Variable 4.5 mph - N/A   Clear
1:00 PM 86.0 °F 84.9 °F 57.2 °F 37% 29.59 in 6.2 mi Variable 4.5 mph - N/A   Partly Cloudy
1:30 PM 86.0 °F 84.9 °F 57.2 °F 37% 29.59 in 6.2 mi Variable 4.5 mph 15.7 mph N/A   Partly Cloudy
2:00 PM 85 °F - 57 °F 29% 29.59 in 16 mi SSW 6.7 mph - -   Mostly Cloudy
2:00 PM 87.8 °F 86.1 °F 55.4 °F 33% 29.59 in 6.2 mi Variable 4.5 mph 15.7 mph N/A   Partly Cloudy
2:30 PM 89.6 °F 87.7 °F 55.4 °F 31% 29.56 in - SE 6.7 mph - N/A   Clear
3:00 PM 89.6 °F 87.7 °F 55.4 °F 31% 29.56 in 6.2 mi South 8.9 mph - N/A   Partly Cloudy
3:30 PM 89.6 °F 87.7 °F 55.4 °F 31% 29.56 in - SSE 6.7 mph - N/A   Clear
4:00 PM 91.4 °F 89.4 °F 55.4 °F 29% 29.53 in 6.2 mi SSE 6.7 mph - N/A   Partly Cloudy
4:30 PM 89.6 °F 88.1 °F 57.2 °F 33% 29.56 in 6.2 mi Variable 4.5 mph - N/A   Partly Cloudy
5:00 PM 88 °F - 55 °F 22% 29.57 in 19 mi SE 4.5 mph - -   Mostly Cloudy
5:00 PM 87.8 °F 86.5 °F 57.2 °F 35% 29.56 in 6.2 mi ESE 6.7 mph - N/A   Partly Cloudy
5:30 PM 86.0 °F 84.9 °F 57.2 °F 37% 29.59 in 6.2 mi ESE 11.2 mph - N/A   Partly Cloudy
6:00 PM 84.2 °F 83.5 °F 57.2 °F 40% 29.56 in - ESE 11.2 mph - N/A   Clear
6:30 PM 82.4 °F 82.5 °F 59.0 °F 45% 29.59 in - East 6.7 mph - N/A   Clear
7:00 PM 80.6 °F 81.5 °F 60.8 °F 51% 29.59 in - East 8.9 mph - N/A   Clear
7:30 PM 78.8 °F - 60.8 °F 54% 29.62 in - East 6.7 mph - N/A   Clear
8:00 PM 82 °F - 59 °F 35% 29.62 in 19 mi East 6.7 mph - -   Partly Cloudy
8:00 PM 77.0 °F - 60.8 °F 57% 29.62 in - ESE 13.4 mph - N/A   Clear
8:30 PM 75.2 °F - 62.6 °F 65% 29.65 in - East 11.2 mph - N/A   Clear
9:00 PM 75.2 °F - 64.4 °F 69% 29.65 in - East 8.9 mph - N/A   Clear
9:30 PM 73.4 °F - 64.4 °F 73% 29.68 in - East 6.7 mph - N/A   Clear
10:00 PM 71.6 °F - 64.4 °F 78% 29.68 in - East 6.7 mph - N/A   Clear
10:30 PM 71.6 °F - 64.4 °F 78% 29.71 in 5.0 mi East 4.5 mph - N/A   Unknown
11:00 PM 74 °F - 64 °F 64% 29.71 in 2 mi ENE 6.7 mph - -   Haze
11:00 PM 69.8 °F - 64.4 °F 83% 29.71 in 5.0 mi Variable 2.2 mph - N/A   Unknown
11:30 PM 69.8 °F - 64.4 °F 83% 29.74 in 5.0 mi Variable 2.2 mph - N/A   Unknown